Content
SEND FEEDBACK

Daily
Averages
Monthly
Summary
United States of America

MATHEWS, ALABAMA


Home > North America > United States > Alabama
Elevation: 19 feet     Latitude: 32 16N     Longitude: 086 00W

WEATHER
 
SELECT A DAY
Number of Records: 187,209;   Date Range: 1/3/95 - 8/28/14
 
SHARE

PRINT THIS DATA

[ ← Previous Day ]
WEATHER ALMANAC - FEBRUARY 13, 2013
[ Next Day → ]
[ °C ]   °F
Weather ElementAverageHighLow
Temperature50.4 °F53.6 °F (7:48 am)38.8 °F (11:58 pm)
Dewpoint43 °F48.2 °F (4:43 am)33.8 °F (9:58 pm)
Humidity76.6 %94 % (4:43 am)58 % (2:08 pm)
Barometer29.87 in30.06 in (11:58 pm)29.76 in (2:26 am)
Wind Speed6.5 mph13.8 mph (10:52 am)
Wind Gust25.3 mph (10:52 am)
Weather ElementAverage
Visibility7.8 mi
Wind DirectionSSW (214.5 °)

Weather ElementTotal
Precipitation0.01 in
Heating Degree Days18.8 (Base 65)
Averaged from 58 records on February 13, 2013
WEATHER CONDITIONS BREAKOUT
WIND DIRECTION BREAKOUT
WEATHER BY HOUR - FEBRUARY 13, 2013
[ °C ]   °F
Local TimeTemperatureDewpointHumidityBarometerVisibilityWind DirectionWind SpeedGust SpeedPrecipitationEventsConditions
12:58 AM49.8 °F45.7 °F86 %29.79 in7.0 miEast (90°)4.6 mphOvercast
1:33 AM50.0 °F46.4 °F87 %29.78 in8.0 miEast (100°)3.5 mphOvercast
1:58 AM49.8 °F46.2 °F87 %29.79 in4.0 miENE (60°)2.3 mphOvercast
2:08 AM50.0 °F46.4 °F87 %29.78 in3.0 miCalmOvercast
2:13 AM50.0 °F46.4 °F87 %29.78 in2.5 miCalmOvercast
2:14 AM50.0 °F46.4 °F87 %29.78 in2.0 miCalmLight Drizzle
2:26 AM50.0 °F46.4 °F87 %29.76 in2.5 miVariable2.3 mphOvercast
2:31 AM50.0 °F46.4 °F87 %29.76 in3.0 miWest (280°)2.3 mphOvercast
2:36 AM50.0 °F46.4 °F87 %29.76 in3.0 miCalm (10°)Overcast
2:41 AM50.0 °F46.4 °F87 %29.76 in3.0 miCalmOvercast
2:46 AM50.0 °F46.4 °F87 %29.76 in2.5 miCalmOvercast
2:58 AM50.0 °F46.6 °F88 %29.77 in2.5 miCalm0.00 inOvercast
3:08 AM50.0 °F46.4 °F87 %29.76 in2.0 miWNW (290°)2.3 mphOvercast
3:13 AM50.0 °F46.4 °F87 %29.76 in1.8 miWNW (290°)2.3 mphOvercast
3:33 AM50.0 °F46.4 °F87 %29.77 in2.0 miVariable2.3 mphOvercast
3:38 AM50.0 °F46.4 °F87 %29.77 in2.5 miWSW (240°)2.3 mphOvercast
3:58 AM50.5 °F47.1 °F88 %29.78 in2.5 miSW (220°)2.3 mphOvercast
4:33 AM50.0 °F46.4 °F87 %29.79 in3.0 miVariable3.5 mphOvercast
4:43 AM50.0 °F48.2 °F94 %29.80 in4.0 miWSW (240°)5.8 mphOvercast
4:58 AM51.4 °F48.0 °F88 %29.81 in9.0 miWSW (250°)6.9 mphOvercast
5:23 AM51.8 °F48.2 °F88 %29.81 in10.0 miWSW (240°)8.1 mphOvercast
5:53 AM51.8 °F48.2 °F88 %29.83 in10.0 miWest (260°)8.1 mph18.4 mphOvercast
5:58 AM52.2 °F48.2 °F86 %29.84 in10.0 miWSW (250°)9.2 mphOvercast
6:13 AM51.8 °F48.2 °F88 %29.82 in10.0 miWSW (250°)6.9 mphOvercast
6:55 AM51.8 °F46.4 °F82 %29.83 in10.0 miWSW (250°)8.1 mphOvercast
6:58 AM52.0 °F46.4 °F81 %29.83 in10.0 miWSW (250°)5.8 mphOvercast
7:03 AM51.8 °F46.4 °F82 %29.85 in10.0 miWest (260°)6.9 mphOvercast
7:13 AM51.8 °F46.4 °F82 %29.86 in10.0 miWest (270°)8.1 mphOvercast
7:18 AM51.8 °F46.4 °F82 %29.85 in10.0 miWest (270°)8.1 mphOvercast
7:48 AM53.6 °F46.4 °F77 %29.88 in10.0 miWest (260°)11.5 mph17.3 mphOvercast
7:58 AM52.7 °F45.5 °F76 %29.91 in10.0 miWSW (250°)8.1 mph17.3 mphOvercast
8:53 AM53.6 °F44.6 °F72 %29.90 in10.0 miWSW (250°)12.7 mph19.6 mphMostly Cloudy
8:58 AM53.6 °F43.9 °F70 %29.90 in10.0 miWest (270°)9.2 mph19.6 mphMostly Cloudy
9:13 AM53.6 °F44.6 °F72 %29.88 in10.0 miWSW (250°)10.4 mph18.4 mphMostly Cloudy
9:58 AM53.6 °F43.3 °F68 %29.92 in10.0 miWNW (290°)8.1 mphMostly Cloudy
10:01 AM53.6 °F42.8 °F67 %29.92 in10.0 miWest (280°)9.2 mphRainLight Rain
10:33 AM51.8 °F42.8 °F71 %29.93 in10.0 miWest (270°)8.1 mph21.9 mphOvercast
10:52 AM51.8 °F41.0 °F67 %29.92 in10.0 miWNW (290°)13.8 mph25.3 mphRainLight Rain
10:58 AM50.7 °F41.0 °F69 %29.92 in10.0 miWNW (290°)12.7 mph25.3 mph0.00 inRainLight Rain
11:24 AM50.0 °F42.8 °F76 %29.94 in10.0 miWest (270°)6.9 mphOvercast
11:58 AM49.5 °F40.6 °F72 %29.93 in10.0 miVariable6.9 mph0.01 inOvercast
12:23 PM50.0 °F39.2 °F66 %29.88 in10.0 miWNW (300°)9.2 mphMostly Cloudy
12:58 PM50.5 °F38.1 °F62 %29.90 in10.0 miWNW (290°)10.4 mph17.3 mphOvercast
1:38 PM50.0 °F37.4 °F62 %29.89 in10.0 miWNW (290°)11.5 mph16.1 mphOvercast
1:58 PM51.4 °F37.9 °F60 %29.91 in10.0 miWest (280°)10.4 mph17.3 mphOvercast
2:08 PM51.8 °F37.4 °F58 %29.91 in10.0 miWest (280°)10.4 mphOvercast
2:58 PM50.2 °F36.7 °F60 %29.93 in10.0 miWNW (290°)9.2 mphOvercast
3:13 PM50.0 °F35.6 °F58 %29.92 in10.0 miWNW (300°)11.5 mph19.6 mphOvercast
3:58 PM50.5 °F36.3 °F58 %29.95 in10.0 miWNW (290°)8.1 mphOvercast
4:26 PM50.0 °F37.4 °F62 %29.94 in10.0 miWNW (300°)5.8 mphOvercast
4:55 PM50.0 °F37.4 °F62 %29.96 in10.0 miWNW (300°)8.1 mphOvercast
4:58 PM50.0 °F37.4 °F62 %29.95 in10.0 miNW (310°)10.4 mph18.4 mphOvercast
5:58 PM48.9 °F36.5 °F62 %29.98 in10.0 miNW (310°)6.9 mphOvercast
6:58 PM48.6 °F36.5 °F63 %30.00 in10.0 miNW (320°)12.7 mph19.6 mphOvercast
7:58 PM47.1 °F34.5 °F62 %30.02 in10.0 miNW (320°)9.2 mphOvercast
8:58 PM45.1 °F34.3 °F66 %30.03 in10.0 miNW (310°)8.1 mphOvercast
9:58 PM41.7 °F33.8 °F73 %30.03 in10.0 miNW (320°)4.6 mphClear
11:58 PM38.8 °F33.8 °F82 %30.06 in10.0 miWNW (290°)3.5 mphClear
Hourly data recorded from KMXF, located miles away from Mathews, Alabama







STORIES FROM OUR PARTNERS